Torna al catalogo

BLOCK DM-SL DEB

LostHEO
NORAD 38679·DEBRIS·🇷🇺 Russia

Lanciato Nov 30, 2009 da Baikonur Cosmodrome

Loading…

Prossimi Passaggi (prossime 24 ore)

TLE

ObsoletoSource: Space-Track

Epoca: Oct 5, 2012, 09:12 UTC

1 38679U 09067C   12279.38364435 -.00000095 +00000-0 +10000-3 0  9991
2 38679 012.7716 322.8563 4531779 149.8201 246.4474 01.73287785015712

Traccia BLOCK DM-SL DEB in tempo reale con AllMySat

Download on the App Store